Location: Okie-Tex Star Party
(36.8978°N, 102.9520°W)
Time: 09:02:20
(UTC-06:00)

Amateur Radio Satellites - All Passes

Search period start: 07 February 2016 08:32
Search period end: 08 February 2016 08:32
Location: Okie-Tex Star Party, 36.8978°N, 102.9520°W

Satellite Date Start Highest point End Downlink Frequencies (MHz)
Time Altitude Azimuth
CUTE 1.7 + AOD 2 07 Feb 08:58:09 09:02:22 57° 100° (E) 09:06:36 437.475
COMPASS 1 07 Feb 09:01:32 09:05:21 32° 97° (E) 09:09:09 437.405
Cosmos 2499 07 Feb 09:03:44 09:06:53 12° 75° (ENE) 09:10:02 435.465 / 435.565
SEEDS 07 Feb 09:09:55 09:14:08 58° 100° (E) 09:18:19 437.485
ANTELSAT 07 Feb 09:16:35 09:17:34 11° 64° (ENE) 09:18:33 437.575/2403.000
TIGRISAT 07 Feb 09:23:37 09:25:27 13° 65° (ENE) 09:27:16 435.000
PHONESAT 2.4 07 Feb 09:25:06 09:25:40 10° 218° (SW) 09:26:14 2401.200-2431.200
GONETS M04 07 Feb 09:25:16 09:33:27 49° 89° (E) 09:41:40
CINEMA 3 07 Feb 09:26:30 09:30:40 81° 281° (W) 09:34:48 145.822/145.860
ZACube-1 07 Feb 09:26:49 09:29:20 15° 93° (E) 09:31:54 437.345
AAUSAT CUBESAT 2 07 Feb 09:32:52 09:37:03 64° 101° (E) 09:41:13 437.432
O/OREOS (USA 219) 07 Feb 09:33:50 09:38:13 54° 293° (WNW) 09:42:39 437.305
FUNcube-1 07 Feb 09:37:01 09:40:05 19° 95° (E) 09:43:11 145.935
DELFI C3 07 Feb 09:37:07 09:39:07 13° 93° (E) 09:41:06 145.870
CANX-2 07 Feb 09:42:57 09:46:53 36° 287° (WNW) 09:50:48 2200.000
HO-68 07 Feb 09:47:12 09:54:19 65° 289° (WNW) 10:01:24 435.675
DOVE 4 07 Feb 09:48:55 09:51:23 15° 294° (WNW) 09:53:48 437.250
CUBEBUG 2 07 Feb 09:53:37 09:57:47 69° 101° (ESE) 10:02:00 437.445
UWE-3 07 Feb 10:00:45 10:04:54 58° 101° (E) 10:09:06 435.000/436.395/437.385
UNISAT 6 07 Feb 10:04:38 10:08:40 38° 73° (ENE) 10:12:40 437.425
JUGNU 07 Feb 10:05:41 10:07:16 11° 169° (S) 10:08:50 437.505
HUMSAT D 07 Feb 10:11:37 10:13:50 14° 93° (E) 10:16:03 437.325/437.525
Oscar 11 07 Feb 10:13:40 10:18:02 76° 101° (E) 10:22:22 145.826/435.025
CUTE 1.7 + AOD 2 07 Feb 10:36:18 10:37:43 11° 295° (WNW) 10:39:08 437.475
COMPASS 1 07 Feb 10:37:46 10:40:41 18° 292° (WNW) 10:43:35 437.405
SEEDS 07 Feb 10:48:05 10:49:19 11° 295° (WNW) 10:50:33 437.485
ANTELSAT 07 Feb 10:49:27 10:53:45 62° 259° (W) 10:58:01 437.575/2403.000
Cosmos 2499 07 Feb 10:49:49 10:58:21 75° 93° (E) 11:07:14 435.465 / 435.565
POLYITAN 1 07 Feb 10:52:46 10:56:32 31° 71° (ENE) 11:00:16 437.675
QB50P2 07 Feb 10:53:31 10:57:19 33° 72° (ENE) 11:01:07 145.880/145.840
TIGRISAT 07 Feb 10:57:27 11:01:42 52° 260° (W) 11:05:54 435.000
ZACube-1 07 Feb 11:01:52 11:05:45 37° 287° (WNW) 11:09:40 437.345
VELOX 1 07 Feb 11:07:23 11:08:09 10° 91° (E) 11:08:55 145.980
DELFI C3 07 Feb 11:10:23 11:14:11 39° 287° (WNW) 11:17:58 145.870
BUGSAT 1 07 Feb 11:12:29 11:15:56 25° 70° (ENE) 11:19:22 437.445
FUNcube-1 07 Feb 11:12:42 11:16:20 29° 289° (WNW) 11:20:03 145.935
AISAT 07 Feb 11:21:35 11:24:28 17° 94° (E) 11:27:21 437.250
GONETS M04 07 Feb 11:22:51 11:30:26 33° 287° (WNW) 11:38:06
POPSAT HIP 1 07 Feb 11:23:33 11:27:46 72° 77° (ENE) 11:32:01 437.405
PCSat 07 Feb 11:28:47 11:33:46 39° 110° (ESE) 11:38:47 145.827
NANOSAT C BR1 07 Feb 11:30:06 11:34:20 84° 76° (ENE) 11:38:35 145.865
ESTCUBE 1 07 Feb 11:31:06 11:34:51 25° 96° (E) 11:38:34 437.505/2401.250
DUCHIFAT 1 07 Feb 11:32:51 11:37:05 87° 83° (E) 11:41:20 145.980
QB50P1 07 Feb 11:36:28 11:40:44 78° 259° (W) 11:44:58 145.935-145.965
HO-68 07 Feb 11:38:56 11:40:39 11° 308° (NW) 11:42:21 435.675
UWE-3 07 Feb 11:39:57 11:40:52 11° 295° (WNW) 11:41:48 435.000/436.395/437.385
AO-85 07 Feb 11:41:44 11:47:02 85° 120° (ESE) 11:52:34 145.980
UNISAT 6 07 Feb 11:42:53 11:45:32 16° 266° (W) 11:48:09 437.425
HUMSAT D 07 Feb 11:45:43 11:49:37 40° 287° (WNW) 11:53:33 437.325/437.525
CUBEBUG 1 07 Feb 11:49:05 11:52:50 28° 96° (E) 11:56:34 437.445
UKube-1 07 Feb 11:49:48 11:53:39 31° 98° (E) 11:57:28 .
JUGNU 07 Feb 11:52:26 11:55:26 14° 180° (S) 11:58:25 437.505
AIST 1 07 Feb 11:56:21 12:00:42 64° 278° (W) 12:05:06
DX 1 07 Feb 11:56:23 12:00:34 44° 100° (E) 12:04:42 434.975-435.025
50 SAT 07 Feb 11:57:18 12:01:03 55° 100° (E) 12:04:47 437.505
RS-15 07 Feb 11:59:20 12:09:47 51° 110° (ESE) 12:20:44 29.354- 29.394
SPROUT 07 Feb 12:05:20 12:07:35 14° 93° (E) 12:09:49 437.525
Oscar 19 07 Feb 12:18:56 12:22:12 17° 64° (ENE) 12:25:26 437.125/150
POLYITAN 1 07 Feb 12:29:22 12:32:22 19° 265° (W) 12:35:22 437.675
QB50P2 07 Feb 12:30:17 12:33:11 18° 266° (W) 12:36:06 145.880/145.840
CUSAT 1 07 Feb 12:31:53 12:34:38 13° 60° (ENE) 12:37:05 437.405
VELOX 1 07 Feb 12:40:37 12:44:59 60° 285° (WNW) 12:49:18 145.980
DANDE 07 Feb 12:41:32 12:43:51 12° 57° (ENE) 12:46:01 436.750
Cosmos 2499 07 Feb 12:45:53 12:52:20 23° 293° (WNW) 12:58:55 435.465 / 435.565
BUGSAT 1 07 Feb 12:47:49 12:51:13 24° 264° (W) 12:54:38 437.445
AISAT 07 Feb 12:57:01 13:01:05 37° 288° (WNW) 13:05:06 437.250
ESTCUBE 1 07 Feb 13:07:45 13:11:36 27° 290° (WNW) 13:15:25 437.505/2401.250
PCSat 07 Feb 13:12:40 13:17:15 27° 307° (NW) 13:21:51 145.827
ITAMSAT 1 07 Feb 13:22:36 13:24:52 13° 62° (ENE) 13:27:10 435.822/435.867
SRMSAT 07 Feb 13:23:00 13:25:59 14° 176° (S) 13:28:59 437.500
JAS-2 07 Feb 13:23:35 13:31:09 58° 72° (ENE) 13:38:12 435.910
AO-85 07 Feb 13:24:54 13:28:18 16° 317° (NW) 13:31:43 145.980
CUBEBUG 1 07 Feb 13:25:33 13:28:58 23° 291° (WNW) 13:32:21 437.445
UKube-1 07 Feb 13:26:18 13:29:29 20° 292° (WNW) 13:32:40 .
DX 1 07 Feb 13:33:54 13:36:22 15° 294° (WNW) 13:38:48 434.975-435.025
AO-7 07 Feb 13:34:10 13:36:58 12° 48° (NE) 13:39:46 29.400- 29.500
SPROUT 07 Feb 13:39:43 13:43:45 42° 287° (WNW) 13:47:45 437.525
JUGNU 07 Feb 13:41:46 13:43:35 11° 190° (S) 13:45:24 437.505
Oscar 19 07 Feb 13:55:57 14:01:01 55° 259° (W) 14:06:07 437.125/150
TISAT 1 07 Feb 13:59:22 14:03:31 72° 285° (WNW) 14:07:39 437.305
Gurwin Techsat 1B 07 Feb 14:04:19 14:09:33 64° 74° (ENE) 14:14:49 435.225
RS-15 07 Feb 14:11:42 14:22:17 46° 312° (NW) 14:33:29 29.354- 29.394
CUSAT 1 07 Feb 14:12:00 14:18:02 69° 264° (W) 14:22:31 437.405
YUBILEINY 07 Feb 14:14:08 14:21:18 27° 70° (ENE) 14:28:23 435.215
SWISSCUBE 07 Feb 14:16:03 14:20:15 29° 97° (E) 14:24:25 437.505
Cosmos 2491 07 Feb 14:20:34 14:23:51 13° 76° (ENE) 14:27:08 435.465 / 435.565
DANDE 07 Feb 14:21:14 14:28:31 78° 80° (E) 14:34:00 436.750
ITUPSAT 1 07 Feb 14:50:57 14:55:45 62° 101° (ESE) 15:00:30 437.325
ITAMSAT 1 07 Feb 14:58:31 15:03:40 73° 257° (WSW) 15:08:53 435.822/435.867
BEESAT 07 Feb 15:01:15 15:06:04 83° 102° (ESE) 15:10:52 436.000
JAS-2 07 Feb 15:09:59 15:16:18 27° 265° (W) 15:22:22 435.910
SRMSAT 07 Feb 15:11:38 15:14:20 13° 187° (S) 15:17:02 437.500
SO-50 07 Feb 15:16:26 15:21:14 68° 58° (ENE) 15:25:50 436.795
AO-7 07 Feb 15:19:51 15:28:01 61° 67° (ENE) 15:36:12 29.400- 29.500
Cosmos 2504 07 Feb 15:37:53 15:43:25 18° 65° (ENE) 15:48:44 435.465 / 435.565
STARS 07 Feb 15:40:12 15:42:23 14° 93° (E) 15:44:33 437.465
Gurwin Techsat 1B 07 Feb 15:47:17 15:49:54 14° 269° (W) 15:52:33 435.225
KKS-1 07 Feb 15:48:27 15:52:28 33° 98° (E) 15:56:27 437.445
M-CUBED/EXP-1 PRIME 07 Feb 15:48:57 15:52:45 66° 71° (ENE) 15:56:16 437.505
SWISSCUBE 07 Feb 15:53:57 15:57:54 26° 292° (WNW) 16:01:51 437.505
AUBIESAT-1 07 Feb 16:01:12 16:04:58 77° 72° (ENE) 16:08:31 437.475
DANDE 07 Feb 16:06:47 16:10:01 14° 283° (WNW) 16:12:58 436.750
YUBILEINY 07 Feb 16:09:58 16:18:38 62° 268° (W) 16:27:14 435.215
Cosmos 2491 07 Feb 16:10:28 16:19:10 80° 94° (E) 16:27:53 435.465 / 435.565
HORYU 2 07 Feb 16:11:03 16:15:18 48° 73° (ENE) 16:19:33 437.375
ITUPSAT 1 07 Feb 16:30:46 16:33:01 13° 297° (WNW) 16:35:16 437.325
RS-15 07 Feb 16:31:46 16:38:59 18° 344° (NNW) 16:46:25 29.354- 29.394
MOZHAYETS 4 07 Feb 16:58:36 17:03:16 79° 101° (ESE) 17:07:54
SO-50 07 Feb 16:59:27 17:01:03 12° 254° (WSW) 17:02:38 436.795
ISS 07 Feb 16:59:28 17:02:40 62° 136° (SE) 17:05:52 145.825
AO-7 07 Feb 17:14:20 17:21:09 27° 264° (W) 17:28:01 29.400- 29.500
STARS 07 Feb 17:14:47 17:18:58 46° 287° (WNW) 17:23:07 437.465
KKS-1 07 Feb 17:25:35 17:28:48 20° 293° (WNW) 17:31:59 437.445
Cosmos 2504 07 Feb 17:29:16 17:37:58 85° 266° (W) 17:46:02 435.465 / 435.565
LilacSat-2 07 Feb 17:32:03 17:34:20 15° 68° (ENE) 17:36:37 437.200
CUBESAT XI-V 07 Feb 17:33:17 17:36:22 17° 93° (E) 17:39:24 437.345
BEESAT 3 07 Feb 17:44:08 17:47:33 28° 113° (ESE) 17:50:59 437.485
HORYU 2 07 Feb 17:50:02 17:52:07 13° 268° (W) 17:54:11 437.375
CUTE-I 07 Feb 17:56:33 18:01:35 46° 72° (ENE) 18:06:41 437.470
BRITE-PL 07 Feb 17:59:19 18:04:02 28° 68° (ENE) 18:08:43 437.365/2234.400
BEESAT 2 07 Feb 18:03:33 18:07:04 29° 113° (ESE) 18:10:34 435.950
O/OREOS (USA 219) 07 Feb 18:07:44 18:10:51 18° 59° (ENE) 18:13:58 437.305
Cubesat XI-IV 07 Feb 18:09:13 18:14:27 62° 73° (ENE) 18:19:43 437.490
Cosmos 2491 07 Feb 18:11:04 18:16:57 20° 293° (WNW) 18:22:52 435.465 / 435.565
HO-68 07 Feb 18:30:02 18:33:09 13° 54° (NE) 18:36:16 435.675
ISS 07 Feb 18:37:11 18:39:23 17° 333° (NNW) 18:41:34 145.825
STRAND 1 07 Feb 18:49:14 18:51:40 13° 91° (E) 18:54:07 437.568
RS-15 07 Feb 18:50:13 18:58:18 20° 22° (NNE) 19:06:30 29.354- 29.394
LilacSat-2 07 Feb 19:04:57 19:08:23 31° 263° (W) 19:11:50 437.200
CUBESAT XI-V 07 Feb 19:09:28 19:13:54 42° 288° (WNW) 19:18:17 437.345
DOVE 4 07 Feb 19:12:26 19:17:07 35° 72° (ENE) 19:21:36 437.250
GOMX 1 07 Feb 19:17:34 19:23:02 77° 76° (ENE) 19:28:20 467.674
BEESAT 3 07 Feb 19:22:07 19:25:17 22° 309° (NW) 19:28:29 437.485
Cosmos 2504 07 Feb 19:25:55 19:29:49 14° 284° (WNW) 19:33:38 435.465 / 435.565
BRITE-PL 07 Feb 19:36:59 19:42:15 39° 263° (W) 19:47:31 437.365/2234.400
CUTE-I 07 Feb 19:38:06 19:41:51 19° 267° (W) 19:45:37 437.470
AIST 2 07 Feb 19:38:40 19:42:23 32° 114° (ESE) 19:46:07 435.215
GONETS M04 07 Feb 19:39:08 19:45:25 21° 67° (ENE) 19:51:40
BEESAT 2 07 Feb 19:41:47 19:44:57 22° 309° (NW) 19:48:08 435.950
O/OREOS (USA 219) 07 Feb 19:46:07 19:50:26 42° 255° (WSW) 19:54:45 437.305
CUTE 1.7 + AOD 2 07 Feb 19:48:53 19:52:31 29° 71° (ENE) 19:56:11 437.475
COMPASS 1 07 Feb 19:51:09 19:53:52 17° 68° (ENE) 19:56:34 437.405
Cubesat XI-IV 07 Feb 19:52:06 19:54:54 14° 268° (W) 19:57:43 437.490
SEEDS 07 Feb 19:59:44 20:03:21 29° 71° (ENE) 20:06:59 437.485
HO-68 07 Feb 20:12:32 20:19:40 76° 72° (ENE) 20:26:52 435.675
PRISM 07 Feb 20:15:08 20:18:49 29° 97° (E) 20:22:28 437.425
AO-85 07 Feb 20:16:37 20:21:28 40° 53° (NE) 20:25:54 145.980
PCSat 07 Feb 20:19:15 20:23:22 21° 50° (NE) 20:27:28 145.827
AAUSAT CUBESAT 2 07 Feb 20:21:11 20:24:48 30° 72° (ENE) 20:28:28 437.432
CINEMA 3 07 Feb 20:25:15 20:29:58 69° 76° (ENE) 20:34:28 145.822/145.860
STRAND 1 07 Feb 20:26:08 20:31:14 63° 286° (WNW) 20:36:19 437.568
FUNcube-1 07 Feb 20:32:07 20:33:46 12° 66° (ENE) 20:35:24 145.935
CANX-2 07 Feb 20:32:53 20:37:03 70° 259° (W) 20:41:17 2200.000
Cosmos 2499 07 Feb 20:45:52 20:52:15 23° 68° (ENE) 20:58:16 435.465 / 435.565
CUBEBUG 2 07 Feb 20:49:27 20:53:35 42° 74° (ENE) 20:57:38 437.445
DOVE 4 07 Feb 20:50:38 20:54:48 24° 265° (W) 20:58:49 437.250
UWE-3 07 Feb 20:55:41 20:59:37 35° 72° (ENE) 21:03:27 435.000/436.395/437.385
GOMX 1 07 Feb 20:59:35 21:01:31 12° 270° (W) 21:03:25 467.674
RS-15 07 Feb 21:02:44 21:14:35 53° 51° (NE) 21:26:31 29.354- 29.394
Oscar 11 07 Feb 21:06:06 21:10:08 42° 73° (ENE) 21:14:13 145.826/435.025
AIST 2 07 Feb 21:17:38 21:20:55 22° 309° (NW) 21:24:12 435.215
CUTE 1.7 + AOD 2 07 Feb 21:25:19 21:28:23 19° 266° (W) 21:31:27 437.475
COMPASS 1 07 Feb 21:25:24 21:29:09 34° 263° (W) 21:32:57 437.405
GONETS M04 07 Feb 21:34:19 21:43:06 76° 266° (W) 21:51:53
SEEDS 07 Feb 21:36:03 21:39:04 19° 266° (W) 21:42:06 437.485
PRISM 07 Feb 21:50:54 21:53:56 20° 292° (WNW) 21:56:58 437.425
DELFI C3 07 Feb 21:53:55 21:57:52 83° 77° (ENE) 22:01:52 145.870
ZACube-1 07 Feb 21:54:59 21:59:13 65° 259° (W) 22:03:23 437.345
AAUSAT CUBESAT 2 07 Feb 21:57:30 22:00:20 18° 266° (W) 22:03:13 437.432
AO-85 07 Feb 21:57:51 22:01:37 22° 252° (WSW) 22:05:08 145.980
PCSat 07 Feb 22:01:48 22:07:04 53° 248° (WSW) 22:12:18 145.827
HO-68 07 Feb 22:03:34 22:07:59 17° 268° (W) 22:12:27 435.675
FUNcube-1 07 Feb 22:05:27 22:09:35 51° 260° (W) 22:13:40 145.935
AIST 1 07 Feb 22:06:22 22:09:54 24° 76° (ENE) 22:13:23
AISAT 07 Feb 22:18:03 22:20:01 13° 64° (ENE) 22:22:00 437.250
CUBEBUG 2 07 Feb 22:28:01 22:30:22 14° 267° (W) 22:32:42 437.445
ESTCUBE 1 07 Feb 22:29:07 22:32:12 18° 67° (ENE) 22:35:17 437.505/2401.250
UWE-3 07 Feb 22:33:22 22:36:09 17° 266° (W) 22:38:54 435.000/436.395/437.385
HUMSAT D 07 Feb 22:34:24 22:38:29 82° 258° (WSW) 22:42:35 437.325/437.525
50 SAT 07 Feb 22:36:18 22:38:58 19° 69° (ENE) 22:41:38 437.505
Cosmos 2499 07 Feb 22:37:47 22:46:07 66° 268° (W) 22:53:46 435.465 / 435.565
UKube-1 07 Feb 22:42:43 22:45:56 21° 68° (ENE) 22:49:09 .
CUBEBUG 1 07 Feb 22:43:25 22:46:32 19° 67° (ENE) 22:49:38 437.445
ANTELSAT 07 Feb 22:43:29 22:47:19 30° 97° (E) 22:51:11 437.575/2403.000
Oscar 11 07 Feb 22:44:09 22:46:28 14° 268° (W) 22:48:46 145.826/435.025
DX 1 07 Feb 22:49:49 22:53:37 29° 70° (ENE) 22:57:25 434.975-435.025
TIGRISAT 07 Feb 22:51:05 22:55:04 35° 98° (E) 22:59:04 435.000
POPSAT HIP 1 07 Feb 23:12:25 23:14:31 13° 93° (E) 23:16:35 437.405
RS-15 07 Feb 23:15:35 23:26:54 47° 252° (WSW) 23:38:19 29.354- 29.394
NANOSAT C BR1 07 Feb 23:18:14 23:20:46 16° 93° (E) 23:23:17 145.865
DUCHIFAT 1 07 Feb 23:20:42 23:23:16 16° 94° (E) 23:25:49 145.980
QB50P1 07 Feb 23:24:28 23:27:31 19° 95° (E) 23:30:33 145.935-145.965
ISS 07 Feb 23:29:16 23:32:10 29° 33° (NNE) 23:35:04 145.825
UNISAT 6 07 Feb 23:34:37 23:38:55 66° 285° (WNW) 23:43:18 437.425
VELOX 1 07 Feb 23:35:15 23:39:43 89° 87° (E) 23:44:13 145.980
GONETS M04 07 Feb 23:35:27 23:38:19 12° 284° (WNW) 23:41:11
AIST 1 07 Feb 23:43:55 23:47:23 24° 271° (W) 23:50:50
AISAT 07 Feb 23:51:36 23:56:00 56° 259° (W) 00:00:25 437.250
ESTCUBE 1 08 Feb 00:04:29 00:08:41 38° 262° (W) 00:12:56 437.505/2401.250
50 SAT 08 Feb 00:09:52 00:12:50 23° 264° (W) 00:15:50 437.505
POLYITAN 1 08 Feb 00:15:09 00:19:22 82° 103° (ESE) 00:23:34 437.675
QB50P2 08 Feb 00:15:56 00:20:10 87° 103° (ESE) 00:24:22 145.880/145.840
UKube-1 08 Feb 00:17:57 00:21:47 31° 263° (W) 00:25:39 .
CUBEBUG 1 08 Feb 00:18:28 00:22:32 35° 262° (W) 00:26:38 437.445
ANTELSAT 08 Feb 00:20:36 00:23:51 21° 291° (WNW) 00:27:07 437.575/2403.000
DX 1 08 Feb 00:26:24 00:29:47 22° 264° (W) 00:33:11 434.975-435.025
TIGRISAT 08 Feb 00:28:33 00:31:29 18° 292° (WNW) 00:34:28 435.000
SPROUT 08 Feb 00:30:36 00:34:54 77° 258° (WSW) 00:39:13 437.525
BUGSAT 1 08 Feb 00:31:09 00:35:08 56° 101° (E) 00:39:04 437.445
POPSAT HIP 1 08 Feb 00:46:31 00:50:29 42° 287° (WNW) 00:54:26 437.405
TISAT 1 08 Feb 00:48:30 00:52:40 60° 75° (ENE) 00:56:51 437.305
NANOSAT C BR1 08 Feb 00:52:47 00:56:38 36° 288° (WNW) 01:00:28 145.865
DUCHIFAT 1 08 Feb 00:55:16 00:59:05 35° 288° (WNW) 01:02:54 145.980
QB50P1 08 Feb 00:59:40 01:03:18 29° 289° (WNW) 01:06:57 145.935-145.965
ISS 08 Feb 01:05:51 01:08:32 24° 229° (SW) 01:11:13 145.825
SWISSCUBE 08 Feb 01:20:33 01:24:30 27° 69° (ENE) 01:28:29 437.505
CUSAT 1 08 Feb 01:28:53 01:34:51 25° 84° (E) 01:41:02 437.405
DANDE 08 Feb 01:44:38 01:49:26 18° 80° (E) 01:54:34 436.750
ITUPSAT 1 08 Feb 01:55:22 02:00:00 55° 73° (ENE) 02:04:41 437.325
PHONESAT 2.4 08 Feb 01:59:14 02:02:15 34° 151° (SSE) 02:05:15 2401.200-2431.200
BEESAT 08 Feb 02:05:13 02:09:57 73° 75° (ENE) 02:14:43 436.000
BEESAT 3 08 Feb 02:05:53 02:06:30 10° 44° (NE) 02:07:08 437.485
BUGSAT 1 08 Feb 02:09:27 02:10:00 10° 296° (WNW) 02:10:34 437.445
Oscar 19 08 Feb 02:09:43 02:14:49 63° 101° (E) 02:19:52 437.125/150
JAS-2 08 Feb 02:21:52 02:27:25 53° 99° (E) 02:32:31 435.910
Gurwin Techsat 1B 08 Feb 02:23:15 02:27:54 30° 97° (E) 02:32:32 435.225
Cosmos 2491 08 Feb 02:24:06 02:31:56 35° 73° (ENE) 02:39:44 435.465 / 435.565
BEESAT 2 08 Feb 02:25:38 02:26:46 11° 45° (NE) 02:27:54 435.950
KKS-1 08 Feb 02:44:37 02:48:12 24° 69° (ENE) 02:51:47 437.445
SWISSCUBE 08 Feb 02:58:07 03:02:11 28° 263° (W) 03:06:18 437.505
CUSAT 1 08 Feb 03:08:44 03:16:25 68° 281° (W) 03:24:33 437.405
YUBILEINY 08 Feb 03:12:21 03:19:48 33° 85° (E) 03:27:17 435.215
ITAMSAT 1 08 Feb 03:13:43 03:18:48 48° 100° (E) 03:23:49 435.822/435.867
DANDE 08 Feb 03:23:48 03:31:09 85° 279° (W) 03:39:40 436.750
AO-7 08 Feb 03:25:27 03:31:26 21° 94° (E) 03:37:21 29.400- 29.500
ITUPSAT 1 08 Feb 03:35:53 03:38:09 13° 268° (W) 03:40:26 437.325
PHONESAT 2.4 08 Feb 03:36:11 03:39:26 60° 346° (NNW) 03:42:41 2401.200-2431.200
BEESAT 3 08 Feb 03:40:49 03:44:47 78° 243° (WSW) 03:48:42 437.485
Oscar 19 08 Feb 03:50:51 03:53:34 15° 297° (WNW) 03:56:18 437.125/150
MOZHAYETS 4 08 Feb 03:58:04 04:02:30 55° 74° (ENE) 04:06:59
BEESAT 2 08 Feb 04:01:10 04:05:09 73° 242° (WSW) 04:09:05 435.950
Gurwin Techsat 1B 08 Feb 04:03:10 04:07:45 30° 292° (WNW) 04:12:20 435.225
AIST 2 08 Feb 04:03:19 04:05:15 13° 46° (NE) 04:07:10 435.215
HORYU 2 08 Feb 04:06:51 04:07:59 11° 92° (E) 04:09:07 437.375
JAS-2 08 Feb 04:08:15 04:11:56 18° 298° (WNW) 04:15:25 435.910
STARS 08 Feb 04:08:42 04:13:06 71° 259° (WSW) 04:17:30 437.465
Cosmos 2504 08 Feb 04:15:00 04:19:23 15° 77° (ENE) 04:23:52 435.465 / 435.565
Cosmos 2491 08 Feb 04:20:41 04:28:51 46° 272° (W) 04:37:03 435.465 / 435.565
KKS-1 08 Feb 04:20:49 04:24:38 28° 263° (W) 04:28:28 437.445
CUBESAT XI-V 08 Feb 04:35:21 04:37:42 14° 65° (ENE) 04:40:02 437.345
ITAMSAT 1 08 Feb 04:54:12 04:57:52 20° 295° (WNW) 05:01:31 435.822/435.867
CUSAT 1 08 Feb 04:56:43 05:00:09 13° 299° (WNW) 05:03:37 437.405
M-CUBED/EXP-1 PRIME 08 Feb 05:04:49 05:08:11 72° 108° (ESE) 05:11:44 437.505
YUBILEINY 08 Feb 05:07:46 05:16:10 50° 283° (WNW) 05:24:42 435.215
DANDE 08 Feb 05:10:34 05:15:26 17° 298° (WNW) 05:20:38 436.750
PHONESAT 2.4 08 Feb 05:13:51 05:16:59 42° 3° (N) 05:20:08 2401.200-2431.200
AUBIESAT-1 08 Feb 05:16:28 05:19:54 84° 106° (ESE) 05:23:32 437.475
AO-7 08 Feb 05:16:31 05:24:50 74° 290° (WNW) 05:33:04 29.400- 29.500
SO-50 08 Feb 05:28:14 05:32:43 38° 113° (ESE) 05:37:17 436.795
MOZHAYETS 4 08 Feb 05:38:14 05:40:00 12° 269° (W) 05:41:46
AIST 2 08 Feb 05:40:04 05:44:10 63° 242° (WSW) 05:48:12 435.215
HORYU 2 08 Feb 05:40:30 05:44:53 59° 286° (WNW) 05:49:15 437.375
Cosmos 2504 08 Feb 06:02:51 06:11:19 86° 95° (E) 06:20:14 435.465 / 435.565
STRAND 1 08 Feb 06:02:55 06:06:02 16° 64° (ENE) 06:09:09 437.568
CUBESAT XI-V 08 Feb 06:09:58 06:14:34 57° 260° (W) 06:19:12 437.345
CUTE-I 08 Feb 06:16:30 06:20:40 22° 95° (E) 06:24:48 437.470
Cubesat XI-IV 08 Feb 06:29:10 06:33:52 30° 97° (E) 06:38:31 437.490
LilacSat-2 08 Feb 06:40:34 06:43:54 29° 97° (E) 06:47:13 437.200
PHONESAT 2.4 08 Feb 06:51:10 06:54:27 86° 200° (SSW) 06:57:42 2401.200-2431.200
PRISM 08 Feb 07:03:24 07:06:06 17° 67° (ENE) 07:08:47 437.425
SO-50 08 Feb 07:09:13 07:13:18 26° 310° (NW) 07:17:27 436.795
AO-7 08 Feb 07:11:56 07:16:10 15° 309° (NW) 07:20:24 29.400- 29.500
GOMX 1 08 Feb 07:23:15 07:26:48 23° 94° (E) 07:30:13 467.674
STRAND 1 08 Feb 07:39:43 07:44:42 55° 259° (W) 07:49:45 437.568
BRITE-PL 08 Feb 07:44:42 07:49:31 87° 278° (W) 07:53:56 437.365/2234.400
HO-68 08 Feb 07:45:08 07:49:03 15° 91° (E) 07:52:56 435.675
CUTE-I 08 Feb 07:55:48 08:00:49 41° 290° (WNW) 08:05:49 437.470
Cosmos 2504 08 Feb 08:00:14 08:05:51 19° 295° (WNW) 08:11:39 435.465 / 435.565
Cubesat XI-IV 08 Feb 08:09:09 08:13:51 31° 292° (WNW) 08:18:32 437.490
LilacSat-2 08 Feb 08:15:37 08:17:58 16° 291° (WNW) 08:20:20 437.200
O/OREOS (USA 219) 08 Feb 08:17:17 08:21:05 28° 103° (ESE) 08:24:55 437.305
CANX-2 08 Feb 08:20:44 08:24:12 23° 95° (E) 08:27:38 2200.000
CINEMA 3 08 Feb 08:23:27 08:26:11 17° 94° (E) 08:28:55 145.822/145.860
